Time,TemperatureF,DewpointF,PressureIn,WindDirection,WindDirectionDegrees,WindSpeedMPH,WindSpeedGustMPH,Humidity,HourlyPrecipIn,Conditions,Clouds,dailyrainin,SoftwareType,DateUTC
2013-05-19 00:08:00,69.3,64.0,29.85,South,175,1.0,6.0,84,0.00,,,0.00,weatherlink.com 1.10,2013-05-19 05:08:00,
2013-05-19 00:23:00,69.2,64.0,29.85,East,96,2.0,4.0,84,0.00,,,0.00,weatherlink.com 1.10,2013-05-19 05:23:00,
2013-05-19 00:37:00,68.9,64.0,29.85,ESE,108,1.0,3.0,85,0.00,,,0.00,weatherlink.com 1.10,2013-05-19 05:37:00,
2013-05-19 00:53:00,68.6,64.0,29.86,East,99,3.0,4.0,86,0.00,,,0.00,weatherlink.com 1.10,2013-05-19 05:53:00,
2013-05-19 01:08:00,68.8,65.0,29.85,East,79,2.0,4.0,86,0.00,,,0.00,weatherlink.com 1.10,2013-05-19 06:08:00,
2013-05-19 01:23:00,68.6,64.0,29.85,West,269,0.0,4.0,86,0.00,,,0.00,weatherlink.com 1.10,2013-05-19 06:23:00,
2013-05-19 01:38:00,68.9,65.0,29.85,SSE,155,2.0,5.0,86,0.00,,,0.00,weatherlink.com 1.10,2013-05-19 06:38:00,
2013-05-19 01:53:00,68.4,64.0,29.86,East,98,1.0,3.0,87,0.00,,,0.00,weatherlink.com 1.10,2013-05-19 06:53:00,
2013-05-19 02:08:00,68.7,65.0,29.87,SSE,154,2.0,5.0,87,0.00,,,0.00,weatherlink.com 1.10,2013-05-19 07:08:00,
2013-05-19 02:23:00,68.7,65.0,29.86,SW,233,4.0,4.0,87,0.00,,,0.00,weatherlink.com 1.10,2013-05-19 07:23:00,
2013-05-19 02:38:00,68.7,65.0,29.86,WSW,258,1.0,5.0,87,0.00,,,0.00,weatherlink.com 1.10,2013-05-19 07:38:00,
2013-05-19 02:53:00,68.5,65.0,29.85,ESE,121,2.0,4.0,87,0.00,,,0.00,weatherlink.com 1.10,2013-05-19 07:53:00,
2013-05-19 03:08:00,67.9,64.0,29.84,ESE,110,1.0,2.0,88,0.00,,,0.00,weatherlink.com 1.10,2013-05-19 08:08:00,
2013-05-19 03:23:00,67.3,64.0,29.84,East,88,1.0,3.0,89,0.00,,,0.00,weatherlink.com 1.10,2013-05-19 08:23:00,
2013-05-19 03:38:00,66.7,64.0,29.85,East,101,1.0,1.0,90,0.00,,,0.00,weatherlink.com 1.10,2013-05-19 08:38:00,
2013-05-19 03:53:00,66.3,64.0,29.86,ESE,107,0.0,1.0,92,0.00,,,0.00,weatherlink.com 1.10,2013-05-19 08:53:00,
2013-05-19 04:08:00,66.4,64.0,29.86,ESE,107,1.0,2.0,92,0.00,,,0.00,weatherlink.com 1.10,2013-05-19 09:08:00,
2013-05-19 04:19:00,-999.0,-99.9,0.00,North,-999,-999.0,-999.0,-999,0.00,,,0.00,weatherlink.com 1.10,2013-05-19 09:19:00,
2013-05-19 04:35:00,67.0,64.0,29.85,East,97,4.0,4.0,91,0.00,,,0.00,weatherlink.com 1.10,2013-05-19 09:35:00,
2013-05-19 04:50:00,67.1,64.0,29.84,East,86,2.0,3.0,90,0.00,,,0.00,weatherlink.com 1.10,2013-05-19 09:50:00,
2013-05-19 05:05:00,66.9,64.0,29.83,ESE,117,2.0,3.0,91,0.00,,,0.00,weatherlink.com 1.10,2013-05-19 10:05:00,
2013-05-19 05:20:00,66.8,64.0,29.83,East,94,3.0,3.0,91,0.00,,,0.00,weatherlink.com 1.10,2013-05-19 10:20:00,
2013-05-19 05:35:00,66.6,64.0,29.83,SE,124,0.0,4.0,91,0.00,,,0.00,weatherlink.com 1.10,2013-05-19 10:35:00,
2013-05-19 05:50:00,66.5,64.0,29.82,ESE,102,3.0,4.0,92,0.00,,,0.00,weatherlink.com 1.10,2013-05-19 10:50:00,
2013-05-19 06:05:00,66.8,65.0,29.81,East,89,3.0,5.0,92,0.00,,,0.00,weatherlink.com 1.10,2013-05-19 11:05:00,
2013-05-19 06:20:00,67.0,64.0,29.81,ENE,68,2.0,6.0,91,0.00,,,0.00,weatherlink.com 1.10,2013-05-19 11:20:00,
2013-05-19 06:35:00,67.3,65.0,29.82,ENE,77,4.0,4.0,91,0.00,,,0.00,weatherlink.com 1.10,2013-05-19 11:35:00,
2013-05-19 06:50:00,67.6,65.0,29.84,South,181,0.0,4.0,91,0.00,,,0.00,weatherlink.com 1.10,2013-05-19 11:50:00,
2013-05-19 07:05:00,67.9,65.0,29.84,ENE,75,4.0,5.0,91,0.00,,,0.00,weatherlink.com 1.10,2013-05-19 12:05:00,
2013-05-19 07:20:00,68.5,66.0,29.82,East,84,6.0,7.0,90,0.00,,,0.00,weatherlink.com 1.10,2013-05-19 12:20:00,
2013-05-19 07:35:00,69.4,66.0,29.82,SSE,147,1.0,8.0,88,0.00,,,0.00,weatherlink.com 1.10,2013-05-19 12:35:00,
2013-05-19 07:51:00,70.0,66.0,29.82,East,92,2.0,6.0,87,0.00,,,0.00,weatherlink.com 1.10,2013-05-19 12:51:00,
2013-05-19 08:06:00,70.6,66.0,29.82,ENE,70,5.0,7.0,86,0.00,,,0.00,weatherlink.com 1.10,2013-05-19 13:06:00,
2013-05-19 08:21:00,71.4,67.0,29.82,SE,139,1.0,6.0,85,0.00,,,0.00,weatherlink.com 1.10,2013-05-19 13:21:00,
2013-05-19 08:36:00,72.7,67.0,29.82,East,97,4.0,4.0,82,0.00,,,0.00,weatherlink.com 1.10,2013-05-19 13:36:00,
2013-05-19 08:51:00,72.9,68.0,29.82,ESE,114,0.0,7.0,83,0.00,,,0.00,weatherlink.com 1.10,2013-05-19 13:51:00,
2013-05-19 09:06:00,74.2,68.0,29.81,East,94,6.0,9.0,81,0.00,,,0.00,weatherlink.com 1.10,2013-05-19 14:06:00,
2013-05-19 09:21:00,74.2,68.0,29.82,East,80,3.0,4.0,81,0.00,,,0.00,weatherlink.com 1.10,2013-05-19 14:21:00,
2013-05-19 09:36:00,74.6,68.0,29.81,ENE,78,4.0,6.0,81,0.00,,,0.00,weatherlink.com 1.10,2013-05-19 14:36:00,
2013-05-19 09:51:00,76.0,69.0,29.83,SSW,193,1.0,7.0,79,0.00,,,0.00,weatherlink.com 1.10,2013-05-19 14:51:00,
2013-05-19 10:06:00,76.5,69.0,29.84,SW,214,5.0,6.0,78,0.00,,,0.00,weatherlink.com 1.10,2013-05-19 15:06:00,
2013-05-19 10:21:00,76.0,69.0,29.85,SW,220,3.0,9.0,80,0.00,,,0.00,weatherlink.com 1.10,2013-05-19 15:21:00,
2013-05-19 10:36:00,76.8,70.0,29.84,SSE,156,5.0,10.0,79,0.00,,,0.00,weatherlink.com 1.10,2013-05-19 15:36:00,
2013-05-19 10:52:00,76.6,70.0,29.83,South,174,6.0,11.0,79,0.00,,,0.00,weatherlink.com 1.10,2013-05-19 15:52:00,
2013-05-19 11:06:00,79.0,71.0,29.82,ESE,115,3.0,11.0,77,0.00,,,0.00,weatherlink.com 1.10,2013-05-19 16:06:00,
2013-05-19 11:20:00,80.3,71.0,29.82,SSE,149,8.0,12.0,74,0.00,,,0.00,weatherlink.com 1.10,2013-05-19 16:20:00,
2013-05-19 11:36:00,78.9,71.0,29.85,SW,231,2.0,-999.0,76,-99.99,,,0.00,weatherlink.com 1.10,2013-05-19 16:36:00,
2013-05-19 11:51:00,79.6,71.0,29.85,WSW,246,7.0,9.0,76,0.00,,,0.00,weatherlink.com 1.10,2013-05-19 16:51:00,
2013-05-19 12:06:00,80.2,71.0,29.84,SW,222,6.0,12.0,74,0.00,,,0.00,weatherlink.com 1.10,2013-05-19 17:06:00,
2013-05-19 12:21:00,80.1,72.0,29.78,East,95,6.0,12.0,76,0.00,,,0.00,weatherlink.com 1.10,2013-05-19 17:21:00,
2013-05-19 12:36:00,77.3,71.0,29.77,ESE,106,3.0,10.0,82,0.00,,,0.00,weatherlink.com 1.10,2013-05-19 17:36:00,
2013-05-19 12:51:00,77.1,72.0,29.77,East,79,2.0,7.0,83,0.00,,,0.00,weatherlink.com 1.10,2013-05-19 17:51:00,
2013-05-19 13:06:00,78.8,73.0,29.76,East,95,5.0,8.0,81,0.00,,,0.00,weatherlink.com 1.10,2013-05-19 18:06:00,
2013-05-19 13:21:00,79.9,73.0,29.75,ENE,76,4.0,7.0,80,0.00,,,0.00,weatherlink.com 1.10,2013-05-19 18:21:00,
2013-05-19 13:36:00,80.5,73.0,29.74,East,81,2.0,9.0,78,0.00,,,0.00,weatherlink.com 1.10,2013-05-19 18:36:00,
2013-05-19 13:51:00,82.5,73.0,29.73,ESE,110,4.0,9.0,73,0.00,,,0.00,weatherlink.com 1.10,2013-05-19 18:51:00,
2013-05-19 14:06:00,84.4,74.0,29.73,East,84,3.0,9.0,70,0.00,,,0.00,weatherlink.com 1.10,2013-05-19 19:06:00,
2013-05-19 14:21:00,86.1,73.0,29.72,ENE,66,10.0,10.0,65,0.00,,,0.00,weatherlink.com 1.10,2013-05-19 19:21:00,
2013-05-19 14:37:00,86.8,74.0,29.71,East,84,5.0,13.0,65,0.00,,,0.00,weatherlink.com 1.10,2013-05-19 19:37:00,
2013-05-19 14:52:00,87.4,73.0,29.70,ESE,121,2.0,13.0,62,0.00,,,0.00,weatherlink.com 1.10,2013-05-19 19:52:00,
2013-05-19 15:07:00,88.0,72.0,29.70,East,94,3.0,12.0,59,0.00,,,0.00,weatherlink.com 1.10,2013-05-19 20:07:00,
2013-05-19 15:22:00,89.2,72.0,29.70,East,96,6.0,18.0,58,0.00,,,0.00,weatherlink.com 1.10,2013-05-19 20:22:00,
2013-05-19 15:37:00,89.3,72.0,29.69,SW,233,5.0,10.0,57,0.00,,,0.00,weatherlink.com 1.10,2013-05-19 20:37:00,
2013-05-19 15:52:00,89.9,72.0,29.69,East,101,4.0,9.0,56,0.00,,,0.00,weatherlink.com 1.10,2013-05-19 20:52:00,
2013-05-19 16:07:00,89.9,72.0,29.68,South,173,4.0,12.0,56,0.00,,,0.00,weatherlink.com 1.10,2013-05-19 21:07:00,
2013-05-19 16:22:00,89.9,72.0,29.68,WSW,256,6.0,12.0,56,0.00,,,0.00,weatherlink.com 1.10,2013-05-19 21:22:00,
2013-05-19 16:37:00,90.1,71.0,29.67,West,271,8.0,17.0,54,0.00,,,0.00,weatherlink.com 1.10,2013-05-19 21:37:00,
2013-05-19 16:52:00,90.0,72.0,29.67,South,174,5.0,16.0,55,0.00,,,0.00,weatherlink.com 1.10,2013-05-19 21:52:00,
2013-05-19 17:07:00,89.8,72.0,29.66,SE,128,5.0,11.0,55,0.00,,,0.00,weatherlink.com 1.10,2013-05-19 22:07:00,
2013-05-19 17:22:00,89.0,71.0,29.65,SSW,205,9.0,14.0,55,0.00,,,0.00,weatherlink.com 1.10,2013-05-19 22:22:00,
2013-05-19 17:37:00,87.7,71.0,29.66,WSW,238,3.0,15.0,57,0.00,,,0.00,weatherlink.com 1.10,2013-05-19 22:37:00,
2013-05-19 17:52:00,86.6,71.0,29.66,West,274,2.0,9.0,60,0.00,,,0.00,weatherlink.com 1.10,2013-05-19 22:52:00,
2013-05-19 18:07:00,86.3,71.0,29.65,South,184,5.0,8.0,60,0.00,,,0.00,weatherlink.com 1.10,2013-05-19 23:07:00,
2013-05-19 18:22:00,86.1,71.0,29.65,SSE,155,3.0,7.0,61,0.00,,,0.00,weatherlink.com 1.10,2013-05-19 23:22:00,
2013-05-19 18:37:00,85.7,71.0,29.64,East,89,8.0,10.0,62,0.00,,,0.00,weatherlink.com 1.10,2013-05-19 23:37:00,
2013-05-19 18:52:00,85.3,72.0,29.64,SE,145,2.0,8.0,64,0.00,,,0.00,weatherlink.com 1.10,2013-05-19 23:52:00,
2013-05-19 19:07:00,85.0,72.0,29.64,East,82,3.0,6.0,65,0.00,,,0.00,weatherlink.com 1.10,2013-05-20 00:07:00,
2013-05-19 19:22:00,84.6,72.0,29.65,East,97,3.0,5.0,66,0.00,,,0.00,weatherlink.com 1.10,2013-05-20 00:22:00,
2013-05-19 19:37:00,84.3,72.0,29.65,SSW,207,2.0,7.0,67,0.00,,,0.00,weatherlink.com 1.10,2013-05-20 00:37:00,
2013-05-19 19:52:00,84.2,72.0,29.65,East,89,5.0,8.0,66,0.00,,,0.00,weatherlink.com 1.10,2013-05-20 00:52:00,
2013-05-19 20:07:00,83.8,72.0,29.65,ESE,113,3.0,8.0,67,0.00,,,0.00,weatherlink.com 1.10,2013-05-20 01:07:00,
2013-05-19 20:22:00,83.4,71.0,29.66,ESE,104,2.0,7.0,67,0.00,,,0.00,weatherlink.com 1.10,2013-05-20 01:22:00,
2013-05-19 20:37:00,82.7,71.0,29.66,SE,128,2.0,7.0,67,0.00,,,0.00,weatherlink.com 1.10,2013-05-20 01:37:00,
2013-05-19 20:52:00,82.4,71.0,29.66,WSW,237,3.0,9.0,68,0.00,,,0.00,weatherlink.com 1.10,2013-05-20 01:52:00,
2013-05-19 21:07:00,81.8,71.0,29.65,East,94,2.0,8.0,69,0.00,,,0.00,weatherlink.com 1.10,2013-05-20 02:07:00,
2013-05-19 21:22:00,81.4,71.0,29.65,ESE,113,4.0,8.0,70,0.00,,,0.00,weatherlink.com 1.10,2013-05-20 02:22:00,
2013-05-19 21:37:00,80.9,71.0,29.65,WNW,291,3.0,8.0,71,0.00,,,0.00,weatherlink.com 1.10,2013-05-20 02:37:00,
2013-05-19 21:52:00,80.5,71.0,29.66,East,80,3.0,11.0,72,0.00,,,0.00,weatherlink.com 1.10,2013-05-20 02:52:00,
2013-05-19 22:07:00,80.0,71.0,29.68,SSW,192,2.0,10.0,74,0.00,,,0.00,weatherlink.com 1.10,2013-05-20 03:07:00,
2013-05-19 22:22:00,79.7,71.0,29.69,South,190,6.0,14.0,74,0.00,,,0.00,weatherlink.com 1.10,2013-05-20 03:22:00,
2013-05-19 22:37:00,79.6,70.0,29.69,SW,224,6.0,14.0,72,0.00,,,0.00,weatherlink.com 1.10,2013-05-20 03:37:00,
2013-05-19 22:52:00,79.9,68.0,29.70,South,191,14.0,20.0,66,0.00,,,0.00,weatherlink.com 1.10,2013-05-20 03:52:00,
2013-05-19 23:07:00,79.6,66.0,29.70,SSW,211,9.0,16.0,64,0.00,,,0.00,weatherlink.com 1.10,2013-05-20 04:07:00,
2013-05-19 23:22:00,79.6,66.0,29.70,SW,225,5.0,19.0,63,0.00,,,0.00,weatherlink.com 1.10,2013-05-20 04:22:00,
2013-05-19 23:37:00,79.4,66.0,29.70,SE,136,11.0,21.0,63,0.00,,,0.00,weatherlink.com 1.10,2013-05-20 04:37:00,
2013-05-19 23:52:00,79.4,66.0,29.70,SSE,149,4.0,19.0,63,0.00,,,0.00,weatherlink.com 1.10,2013-05-20 04:52:00,